Torna al catalogo

PERUSAT 1

AttivoScienzaSSO
NORAD 41770·PAYLOAD·🇵🇪 Peru

Lanciato Sep 16, 2016 da Guiana Space Centre

Loading…

Prossimi Passaggi (prossime 24 ore)

TLE

AggiornatoSource: Space-Track

Epoca: Sep 14, 2026, 14:59 UTC

1 41770U 16058A   26257.62485660  .00000232  00000-0  59661-4 0  9996
2 41770  98.1956 330.0863 0001403  82.2723 277.8635 14.58558088532138

Traccia PERUSAT 1 in tempo reale con AllMySat

Download on the App Store